SENTINEL-2A

Last updated on Sun Jul 06 2025 00:02:28 GMT+0000 (Coordinated Universal Time)

1 40697U 15028A 25186.57136140 .00000083 00000+0 48303-4 0 9993 2 40697 98.5690 261.3944 0001213 93.0183 267.1139 14.30814514524163
UTC large
Height (km)
Speed (km/s)
/
Latitude / Longitude
Inclination (degrees)
Orbital Period (minutes)
Azimuth
Elevation
Range (km)
Doppler Factor

Next 0 passes for location: London (51.5072 / 0.1276)

Sorry there are no passes over London.